Time,TemperatureF,DewpointF,PressureIn,WindDirection,WindDirectionDegrees,WindSpeedMPH,WindSpeedGustMPH,Humidity,HourlyPrecipIn,Conditions,Clouds,dailyrainin,SoftwareType,DateUTC
2013-08-27 00:01:00,62.0,50.0,27.00,West,270,4.0,7.0,64,0.00,,,0.00,Rainwise IP-100,2013-08-27 06:01:00,
2013-08-27 00:06:00,61.0,49.0,27.00,East,90,1.0,6.0,64,0.00,,,0.00,Rainwise IP-100,2013-08-27 06:06:00,
2013-08-27 00:11:00,61.0,49.0,27.00,East,90,0.0,2.0,64,0.00,,,0.00,Rainwise IP-100,2013-08-27 06:11:00,
2013-08-27 00:16:00,61.0,49.0,27.01,WSW,247,0.0,3.0,64,0.00,,,0.00,Rainwise IP-100,2013-08-27 06:16:00,
2013-08-27 00:21:00,60.0,48.0,27.01,WSW,247,0.0,0.0,65,0.00,,,0.00,Rainwise IP-100,2013-08-27 06:21:00,
2013-08-27 00:26:00,60.0,48.0,27.01,WSW,247,0.0,0.0,65,0.00,,,0.00,Rainwise IP-100,2013-08-27 06:26:00,
2013-08-27 00:31:00,60.0,49.0,27.01,SSE,157,1.0,3.0,67,0.00,,,0.00,Rainwise IP-100,2013-08-27 06:31:00,
2013-08-27 00:36:00,60.0,49.0,27.01,SSE,157,0.0,2.0,67,0.00,,,0.00,Rainwise IP-100,2013-08-27 06:36:00,
2013-08-27 00:41:00,59.0,47.0,27.01,SW,225,2.0,5.0,66,0.00,,,0.00,Rainwise IP-100,2013-08-27 06:41:00,
2013-08-27 00:46:00,59.0,47.0,27.01,WSW,247,0.0,5.0,66,0.00,,,0.00,Rainwise IP-100,2013-08-27 06:46:00,
2013-08-27 00:51:00,59.0,47.0,27.01,NE,45,0.0,2.0,65,0.00,,,0.00,Rainwise IP-100,2013-08-27 06:51:00,
2013-08-27 00:56:00,59.0,47.0,27.01,ENE,67,0.0,5.0,64,0.00,,,0.00,Rainwise IP-100,2013-08-27 06:56:00,
2013-08-27 01:01:00,60.0,48.0,27.01,West,270,0.0,3.0,65,0.00,,,0.00,Rainwise IP-100,2013-08-27 07:01:00,
2013-08-27 01:06:00,59.0,47.0,27.01,SSE,157,2.0,3.0,64,0.00,,,0.00,Rainwise IP-100,2013-08-27 07:06:00,
2013-08-27 01:11:00,60.0,48.0,27.01,SE,135,2.0,4.0,65,0.00,,,0.00,Rainwise IP-100,2013-08-27 07:11:00,
2013-08-27 01:16:00,60.0,47.0,27.01,SSE,157,3.0,5.0,64,0.00,,,0.00,Rainwise IP-100,2013-08-27 07:16:00,
2013-08-27 01:21:00,60.0,47.0,27.01,SE,135,0.0,4.0,61,0.00,,,0.00,Rainwise IP-100,2013-08-27 07:21:00,
2013-08-27 01:26:00,60.0,47.0,27.02,SE,135,0.0,2.0,61,0.00,,,0.00,Rainwise IP-100,2013-08-27 07:26:00,
2013-08-27 01:31:00,60.0,47.0,27.02,ESE,112,2.0,2.0,62,0.00,,,0.00,Rainwise IP-100,2013-08-27 07:31:00,
2013-08-27 01:36:00,60.0,47.0,27.02,ESE,112,0.0,2.0,63,0.00,,,0.00,Rainwise IP-100,2013-08-27 07:36:00,
2013-08-27 01:41:00,59.0,47.0,27.02,East,90,0.0,3.0,63,0.00,,,0.00,Rainwise IP-100,2013-08-27 07:41:00,
2013-08-27 01:46:00,59.0,47.0,27.03,East,90,0.0,0.0,64,0.00,,,0.00,Rainwise IP-100,2013-08-27 07:46:00,
2013-08-27 01:51:00,59.0,47.0,27.03,East,90,3.0,4.0,65,0.00,,,0.00,Rainwise IP-100,2013-08-27 07:51:00,
2013-08-27 01:56:00,59.0,47.0,27.03,SSE,157,2.0,4.0,64,0.00,,,0.00,Rainwise IP-100,2013-08-27 07:56:00,
2013-08-27 02:01:00,59.0,47.0,27.03,SSW,202,0.0,4.0,64,0.00,,,0.00,Rainwise IP-100,2013-08-27 08:01:00,
2013-08-27 02:06:00,58.0,47.0,27.03,SSW,202,0.0,0.0,66,0.00,,,0.00,Rainwise IP-100,2013-08-27 08:06:00,
2013-08-27 02:11:00,58.0,47.0,27.03,SSW,202,0.0,0.0,67,0.00,,,0.00,Rainwise IP-100,2013-08-27 08:11:00,
2013-08-27 02:16:00,57.0,47.0,27.03,SSW,202,0.0,0.0,68,0.00,,,0.00,Rainwise IP-100,2013-08-27 08:16:00,
2013-08-27 02:21:00,57.0,47.0,27.03,SSW,202,0.0,0.0,68,0.00,,,0.00,Rainwise IP-100,2013-08-27 08:21:00,
2013-08-27 02:26:00,57.0,47.0,27.03,SSW,202,0.0,0.0,69,0.00,,,0.00,Rainwise IP-100,2013-08-27 08:26:00,
2013-08-27 02:31:00,56.0,46.0,27.03,SSW,202,0.0,0.0,69,0.00,,,0.00,Rainwise IP-100,2013-08-27 08:31:00,
2013-08-27 02:36:00,56.0,47.0,27.04,SSW,202,0.0,0.0,71,0.00,,,0.00,Rainwise IP-100,2013-08-27 08:36:00,
2013-08-27 02:41:00,55.0,47.0,27.04,SSW,202,0.0,0.0,73,0.00,,,0.00,Rainwise IP-100,2013-08-27 08:41:00,
2013-08-27 02:46:00,55.0,47.0,27.04,SSW,202,0.0,0.0,74,0.00,,,0.00,Rainwise IP-100,2013-08-27 08:46:00,
2013-08-27 02:51:00,55.0,47.0,27.04,SSW,202,0.0,0.0,74,0.00,,,0.00,Rainwise IP-100,2013-08-27 08:51:00,
2013-08-27 02:56:00,54.0,47.0,27.04,SSW,202,0.0,0.0,75,0.00,,,0.00,Rainwise IP-100,2013-08-27 08:56:00,
2013-08-27 03:01:00,54.0,47.0,27.04,SSW,202,0.0,0.0,76,0.00,,,0.00,Rainwise IP-100,2013-08-27 09:01:00,
2013-08-27 03:06:00,55.0,47.0,27.04,SSW,202,0.0,0.0,75,0.00,,,0.00,Rainwise IP-100,2013-08-27 09:06:00,
2013-08-27 03:11:00,54.0,47.0,27.04,SSW,202,0.0,0.0,76,0.00,,,0.00,Rainwise IP-100,2013-08-27 09:11:00,
2013-08-27 03:16:00,54.0,47.0,27.03,SSW,202,0.0,0.0,76,0.00,,,0.00,Rainwise IP-100,2013-08-27 09:16:00,
2013-08-27 03:21:00,54.0,47.0,27.03,SSW,202,0.0,0.0,77,0.00,,,0.00,Rainwise IP-100,2013-08-27 09:21:00,
2013-08-27 03:26:00,54.0,47.0,27.05,SSW,202,0.0,0.0,77,0.00,,,0.00,Rainwise IP-100,2013-08-27 09:26:00,
2013-08-27 03:31:00,54.0,47.0,27.05,SSW,202,0.0,0.0,78,0.00,,,0.00,Rainwise IP-100,2013-08-27 09:31:00,
2013-08-27 03:36:00,53.0,46.0,27.04,SSW,202,0.0,0.0,78,0.00,,,0.00,Rainwise IP-100,2013-08-27 09:36:00,
2013-08-27 03:41:00,53.0,47.0,27.04,SSW,202,0.0,0.0,80,0.00,,,0.00,Rainwise IP-100,2013-08-27 09:41:00,
2013-08-27 03:46:00,53.0,47.0,27.05,SSW,202,0.0,3.0,80,0.00,,,0.00,Rainwise IP-100,2013-08-27 09:46:00,
2013-08-27 03:51:00,53.0,47.0,27.05,SSW,202,0.0,1.0,81,0.00,,,0.00,Rainwise IP-100,2013-08-27 09:51:00,
2013-08-27 03:56:00,53.0,47.0,27.04,SSW,202,0.0,0.0,79,0.00,,,0.00,Rainwise IP-100,2013-08-27 09:56:00,
2013-08-27 04:01:00,53.0,47.0,27.04,SSW,202,0.0,0.0,79,0.00,,,0.00,Rainwise IP-100,2013-08-27 10:01:00,
2013-08-27 04:06:00,53.0,47.0,27.05,SSW,202,0.0,0.0,81,0.00,,,0.00,Rainwise IP-100,2013-08-27 10:06:00,
2013-08-27 04:11:00,53.0,47.0,27.05,SSW,202,0.0,0.0,80,0.00,,,0.00,Rainwise IP-100,2013-08-27 10:11:00,
2013-08-27 04:16:00,53.0,46.0,27.05,SSW,202,0.0,1.0,78,0.00,,,0.00,Rainwise IP-100,2013-08-27 10:16:00,
2013-08-27 04:21:00,52.0,45.0,27.05,SSW,202,0.0,0.0,78,0.00,,,0.00,Rainwise IP-100,2013-08-27 10:21:00,
2013-08-27 04:26:00,52.0,45.0,27.05,SSW,202,0.0,0.0,78,0.00,,,0.00,Rainwise IP-100,2013-08-27 10:26:00,
2013-08-27 04:31:00,53.0,45.0,27.05,SSW,202,0.0,0.0,76,0.00,,,0.00,Rainwise IP-100,2013-08-27 10:31:00,
2013-08-27 04:36:00,53.0,45.0,27.05,SSW,202,0.0,0.0,75,0.00,,,0.00,Rainwise IP-100,2013-08-27 10:36:00,
2013-08-27 04:41:00,53.0,45.0,27.05,SSW,202,0.0,0.0,75,0.00,,,0.00,Rainwise IP-100,2013-08-27 10:41:00,
2013-08-27 04:46:00,53.0,46.0,27.05,SW,225,0.0,3.0,77,0.00,,,0.00,Rainwise IP-100,2013-08-27 10:46:00,
2013-08-27 04:51:00,53.0,46.0,27.05,SSW,202,0.0,1.0,77,0.00,,,0.00,Rainwise IP-100,2013-08-27 10:51:00,
2013-08-27 04:56:00,53.0,46.0,27.05,SSW,202,0.0,0.0,77,0.00,,,0.00,Rainwise IP-100,2013-08-27 10:56:00,
2013-08-27 05:01:00,52.0,45.0,27.05,SSW,202,0.0,0.0,78,0.00,,,0.00,Rainwise IP-100,2013-08-27 11:01:00,
2013-08-27 05:06:00,52.0,46.0,27.06,ESE,112,0.0,2.0,79,0.00,,,0.00,Rainwise IP-100,2013-08-27 11:06:00,
2013-08-27 05:11:00,52.0,45.0,27.06,ESE,112,0.0,1.0,78,0.00,,,0.00,Rainwise IP-100,2013-08-27 11:11:00,
2013-08-27 05:16:00,52.0,45.0,27.06,ESE,112,0.0,0.0,78,0.00,,,0.00,Rainwise IP-100,2013-08-27 11:16:00,
2013-08-27 05:21:00,52.0,45.0,27.06,ESE,112,0.0,0.0,78,0.00,,,0.00,Rainwise IP-100,2013-08-27 11:21:00,
2013-08-27 05:26:00,52.0,45.0,27.05,ESE,112,0.0,0.0,78,0.00,,,0.00,Rainwise IP-100,2013-08-27 11:26:00,
2013-08-27 05:31:00,51.0,46.0,27.05,ESE,112,0.0,0.0,81,0.00,,,0.00,Rainwise IP-100,2013-08-27 11:31:00,
2013-08-27 05:36:00,51.0,46.0,27.06,ESE,112,0.0,0.0,81,0.00,,,0.00,Rainwise IP-100,2013-08-27 11:36:00,
2013-08-27 05:41:00,51.0,46.0,27.06,ESE,112,0.0,0.0,82,0.00,,,0.00,Rainwise IP-100,2013-08-27 11:41:00,
2013-08-27 05:46:00,51.0,46.0,27.06,ESE,112,0.0,0.0,82,0.00,,,0.00,Rainwise IP-100,2013-08-27 11:46:00,
2013-08-27 05:51:00,51.0,46.0,27.06,ESE,112,0.0,0.0,81,0.00,,,0.00,Rainwise IP-100,2013-08-27 11:51:00,
2013-08-27 05:56:00,50.0,45.0,27.06,ESE,112,0.0,0.0,83,0.00,,,0.00,Rainwise IP-100,2013-08-27 11:56:00,
2013-08-27 06:01:00,51.0,47.0,27.06,ESE,112,0.0,0.0,83,0.00,,,0.00,Rainwise IP-100,2013-08-27 12:01:00,
2013-08-27 06:06:00,51.0,46.0,27.07,ESE,112,0.0,0.0,82,0.00,,,0.00,Rainwise IP-100,2013-08-27 12:06:00,
2013-08-27 06:11:00,51.0,47.0,27.07,ESE,112,0.0,0.0,83,0.00,,,0.00,Rainwise IP-100,2013-08-27 12:11:00,
2013-08-27 06:16:00,50.0,45.0,27.06,North,360,0.0,3.0,83,0.00,,,0.00,Rainwise IP-100,2013-08-27 12:16:00,
2013-08-27 06:21:00,50.0,45.0,27.06,North,360,0.0,0.0,83,0.00,,,0.00,Rainwise IP-100,2013-08-27 12:21:00,
2013-08-27 06:26:00,50.0,45.0,27.07,North,360,0.0,0.0,84,0.00,,,0.00,Rainwise IP-100,2013-08-27 12:26:00,
2013-08-27 06:31:00,49.0,45.0,27.07,North,360,0.0,0.0,85,0.00,,,0.00,Rainwise IP-100,2013-08-27 12:31:00,
2013-08-27 06:36:00,49.0,45.0,27.08,North,360,0.0,0.0,87,0.00,,,0.00,Rainwise IP-100,2013-08-27 12:36:00,
2013-08-27 06:41:00,49.0,46.0,27.08,North,360,0.0,0.0,88,0.00,,,0.00,Rainwise IP-100,2013-08-27 12:41:00,
2013-08-27 06:46:00,49.0,46.0,27.08,North,360,0.0,0.0,88,0.00,,,0.00,Rainwise IP-100,2013-08-27 12:46:00,
2013-08-27 06:51:00,49.0,46.0,27.08,North,360,0.0,0.0,88,0.00,,,0.00,Rainwise IP-100,2013-08-27 12:51:00,
2013-08-27 06:56:00,49.0,46.0,27.07,North,360,0.0,3.0,88,0.00,,,0.00,Rainwise IP-100,2013-08-27 12:56:00,
2013-08-27 07:01:00,49.0,46.0,27.07,North,360,0.0,0.0,89,0.00,,,0.00,Rainwise IP-100,2013-08-27 13:01:00,
2013-08-27 07:06:00,49.0,46.0,27.08,North,360,0.0,0.0,88,0.00,,,0.00,Rainwise IP-100,2013-08-27 13:06:00,
2013-08-27 07:11:00,49.0,46.0,27.08,WNW,292,0.0,0.0,88,0.00,,,0.00,Rainwise IP-100,2013-08-27 13:11:00,
2013-08-27 07:16:00,49.0,46.0,27.08,WNW,292,0.0,0.0,88,0.00,,,0.00,Rainwise IP-100,2013-08-27 13:16:00,
2013-08-27 07:21:00,49.0,46.0,27.08,WNW,292,0.0,0.0,89,0.00,,,0.00,Rainwise IP-100,2013-08-27 13:21:00,
2013-08-27 07:26:00,49.0,47.0,27.08,WNW,292,0.0,0.0,90,0.00,,,0.00,Rainwise IP-100,2013-08-27 13:26:00,
2013-08-27 07:31:00,49.0,46.0,27.08,WNW,292,0.0,0.0,89,0.00,,,0.00,Rainwise IP-100,2013-08-27 13:31:00,
2013-08-27 07:36:00,50.0,47.0,27.08,WNW,292,0.0,0.0,89,0.00,,,0.00,Rainwise IP-100,2013-08-27 13:36:00,
2013-08-27 07:41:00,50.0,47.0,27.08,WNW,292,0.0,0.0,88,0.00,,,0.00,Rainwise IP-100,2013-08-27 13:41:00,
2013-08-27 07:46:00,50.0,46.0,27.08,WNW,292,0.0,0.0,87,0.00,,,0.00,Rainwise IP-100,2013-08-27 13:46:00,
2013-08-27 07:51:00,50.0,46.0,27.08,WNW,292,0.0,0.0,87,0.00,,,0.00,Rainwise IP-100,2013-08-27 13:51:00,
2013-08-27 07:56:00,51.0,47.0,27.09,WNW,292,0.0,0.0,87,0.00,,,0.00,Rainwise IP-100,2013-08-27 13:56:00,
2013-08-27 08:01:00,51.0,47.0,27.09,WNW,292,0.0,1.0,87,0.00,,,0.00,Rainwise IP-100,2013-08-27 14:01:00,
2013-08-27 08:06:00,51.0,47.0,27.08,WNW,292,0.0,0.0,85,0.00,,,0.00,Rainwise IP-100,2013-08-27 14:06:00,
2013-08-27 08:11:00,51.0,47.0,27.08,WNW,292,0.0,0.0,85,0.00,,,0.00,Rainwise IP-100,2013-08-27 14:11:00,
2013-08-27 08:16:00,52.0,47.0,27.07,WNW,292,2.0,3.0,83,0.00,,,0.00,Rainwise IP-100,2013-08-27 14:16:00,
2013-08-27 08:21:00,52.0,47.0,27.07,WNW,292,2.0,3.0,82,0.00,,,0.00,Rainwise IP-100,2013-08-27 14:21:00,
2013-08-27 08:26:00,53.0,47.0,27.07,WNW,292,2.0,4.0,80,0.00,,,0.00,Rainwise IP-100,2013-08-27 14:26:00,
2013-08-27 08:31:00,54.0,47.0,27.07,WNW,292,0.0,3.0,79,0.00,,,0.00,Rainwise IP-100,2013-08-27 14:31:00,
2013-08-27 08:36:00,55.0,48.0,27.08,South,180,2.0,3.0,78,0.00,,,0.00,Rainwise IP-100,2013-08-27 14:36:00,
2013-08-27 08:41:00,55.0,47.0,27.08,SW,225,1.0,4.0,74,0.00,,,0.00,Rainwise IP-100,2013-08-27 14:41:00,
2013-08-27 08:46:00,56.0,47.0,27.08,SSE,157,4.0,4.0,72,0.00,,,0.00,Rainwise IP-100,2013-08-27 14:46:00,
2013-08-27 08:51:00,57.0,48.0,27.08,WNW,292,0.0,5.0,72,0.00,,,0.00,Rainwise IP-100,2013-08-27 14:51:00,
2013-08-27 08:56:00,57.0,47.0,27.09,West,270,0.0,4.0,70,0.00,,,0.00,Rainwise IP-100,2013-08-27 14:56:00,
2013-08-27 09:01:00,58.0,47.0,27.09,West,270,2.0,2.0,68,0.00,,,0.00,Rainwise IP-100,2013-08-27 15:01:00,
2013-08-27 09:06:00,58.0,47.0,27.09,West,270,2.0,6.0,65,0.00,,,0.00,Rainwise IP-100,2013-08-27 15:06:00,
2013-08-27 09:11:00,59.0,47.0,27.09,WSW,247,1.0,5.0,63,0.00,,,0.00,Rainwise IP-100,2013-08-27 15:11:00,
2013-08-27 09:16:00,59.0,47.0,27.11,WSW,247,4.0,6.0,63,0.00,,,0.00,Rainwise IP-100,2013-08-27 15:16:00,
2013-08-27 09:21:00,60.0,47.0,27.11,West,270,0.0,4.0,64,0.00,,,0.00,Rainwise IP-100,2013-08-27 15:21:00,
2013-08-27 09:26:00,61.0,47.0,27.11,South,180,0.0,4.0,60,0.00,,,0.00,Rainwise IP-100,2013-08-27 15:26:00,
2013-08-27 09:31:00,61.0,47.0,27.11,SSE,157,3.0,4.0,59,0.00,,,0.00,Rainwise IP-100,2013-08-27 15:31:00,
2013-08-27 09:36:00,62.0,47.0,27.09,East,90,2.0,5.0,57,0.00,,,0.00,Rainwise IP-100,2013-08-27 15:36:00,
2013-08-27 09:41:00,62.0,46.0,27.09,South,180,0.0,4.0,56,0.00,,,0.00,Rainwise IP-100,2013-08-27 15:41:00,
2013-08-27 09:46:00,63.0,47.0,27.10,NNE,22,2.0,4.0,55,0.00,,,0.00,Rainwise IP-100,2013-08-27 15:46:00,
2013-08-27 09:51:00,64.0,47.0,27.10,WNW,292,0.0,3.0,55,0.00,,,0.00,Rainwise IP-100,2013-08-27 15:51:00,
2013-08-27 09:56:00,64.0,46.0,27.10,WNW,292,0.0,2.0,52,0.00,,,0.00,Rainwise IP-100,2013-08-27 15:56:00,
2013-08-27 10:01:00,65.0,46.0,27.10,SSE,157,2.0,4.0,50,0.00,,,0.00,Rainwise IP-100,2013-08-27 16:01:00,
2013-08-27 10:06:00,65.0,46.0,27.11,SSE,157,5.0,5.0,50,0.00,,,0.00,Rainwise IP-100,2013-08-27 16:06:00,
2013-08-27 10:11:00,64.0,46.0,27.11,SE,135,2.0,6.0,52,0.00,,,0.00,Rainwise IP-100,2013-08-27 16:11:00,
2013-08-27 10:16:00,65.0,47.0,27.11,SE,135,0.0,5.0,51,0.00,,,0.00,Rainwise IP-100,2013-08-27 16:16:00,
2013-08-27 10:21:00,66.0,47.0,27.11,SSW,202,0.0,3.0,50,0.00,,,0.00,Rainwise IP-100,2013-08-27 16:21:00,
2013-08-27 10:26:00,67.0,47.0,27.10,East,90,1.0,3.0,48,0.00,,,0.00,Rainwise IP-100,2013-08-27 16:26:00,
2013-08-27 10:31:00,68.0,49.0,27.10,West,270,2.0,4.0,50,0.00,,,0.00,Rainwise IP-100,2013-08-27 16:31:00,
2013-08-27 10:36:00,67.0,48.0,27.11,North,360,4.0,6.0,50,0.00,,,0.00,Rainwise IP-100,2013-08-27 16:36:00,
2013-08-27 10:41:00,68.0,49.0,27.11,NNW,337,2.0,6.0,50,0.00,,,0.00,Rainwise IP-100,2013-08-27 16:41:00,
2013-08-27 10:46:00,69.0,47.0,27.11,ENE,67,1.0,4.0,47,0.00,,,0.00,Rainwise IP-100,2013-08-27 16:46:00,
2013-08-27 10:51:00,69.0,50.0,27.11,SSW,202,4.0,6.0,50,0.00,,,0.00,Rainwise IP-100,2013-08-27 16:51:00,
2013-08-27 10:56:00,69.0,47.0,27.11,South,180,0.0,5.0,47,0.00,,,0.00,Rainwise IP-100,2013-08-27 16:56:00,
2013-08-27 11:01:00,70.0,49.0,27.11,WSW,247,0.0,4.0,47,0.00,,,0.00,Rainwise IP-100,2013-08-27 17:01:00,
2013-08-27 11:06:00,71.0,48.0,27.11,WNW,292,5.0,5.0,45,0.00,,,0.00,Rainwise IP-100,2013-08-27 17:06:00,
2013-08-27 11:11:00,71.0,48.0,27.11,SSE,157,3.0,6.0,45,0.00,,,0.00,Rainwise IP-100,2013-08-27 17:11:00,
2013-08-27 11:16:00,71.0,47.0,27.12,SSE,157,2.0,5.0,44,0.00,,,0.00,Rainwise IP-100,2013-08-27 17:16:00,
2013-08-27 11:21:00,72.0,47.0,27.12,East,90,0.0,3.0,42,0.00,,,0.00,Rainwise IP-100,2013-08-27 17:21:00,
2013-08-27 11:26:00,72.0,47.0,27.11,NNW,337,1.0,4.0,41,0.00,,,0.00,Rainwise IP-100,2013-08-27 17:26:00,
2013-08-27 11:31:00,73.0,47.0,27.11,SSE,157,2.0,6.0,39,0.00,,,0.00,Rainwise IP-100,2013-08-27 17:31:00,
2013-08-27 11:36:00,72.0,46.0,27.11,SE,135,6.0,7.0,39,0.00,,,0.00,Rainwise IP-100,2013-08-27 17:36:00,
2013-08-27 11:41:00,70.0,45.0,27.11,South,180,6.0,9.0,40,0.00,,,0.00,Rainwise IP-100,2013-08-27 17:41:00,
2013-08-27 11:46:00,71.0,46.0,27.11,West,270,4.0,7.0,41,0.00,,,0.00,Rainwise IP-100,2013-08-27 17:46:00,
2013-08-27 11:51:00,72.0,45.0,27.11,West,270,3.0,5.0,38,0.00,,,0.00,Rainwise IP-100,2013-08-27 17:51:00,
2013-08-27 11:56:00,73.0,46.0,27.09,SSE,157,5.0,6.0,38,0.00,,,0.00,Rainwise IP-100,2013-08-27 17:56:00,
2013-08-27 12:01:00,73.0,46.0,27.09,ESE,112,1.0,6.0,38,0.00,,,0.00,Rainwise IP-100,2013-08-27 18:01:00,
2013-08-27 12:06:00,73.0,45.0,27.09,SSE,157,6.0,7.0,37,0.00,,,0.00,Rainwise IP-100,2013-08-27 18:06:00,
2013-08-27 12:11:00,74.0,46.0,27.09,South,180,2.0,7.0,37,0.00,,,0.00,Rainwise IP-100,2013-08-27 18:11:00,
2013-08-27 12:16:00,75.0,47.0,27.09,SW,225,4.0,4.0,37,0.00,,,0.00,Rainwise IP-100,2013-08-27 18:16:00,
2013-08-27 12:21:00,75.0,47.0,27.09,NW,315,4.0,6.0,36,0.00,,,0.00,Rainwise IP-100,2013-08-27 18:21:00,
2013-08-27 12:26:00,76.0,47.0,27.09,ESE,112,1.0,4.0,35,0.00,,,0.00,Rainwise IP-100,2013-08-27 18:26:00,
2013-08-27 12:31:00,76.0,46.0,27.09,SW,225,2.0,7.0,34,0.00,,,0.00,Rainwise IP-100,2013-08-27 18:31:00,
2013-08-27 12:36:00,77.0,47.0,27.09,WSW,247,2.0,5.0,34,0.00,,,0.00,Rainwise IP-100,2013-08-27 18:36:00,
2013-08-27 12:41:00,77.0,46.0,27.09,North,360,5.0,5.0,33,0.00,,,0.00,Rainwise IP-100,2013-08-27 18:41:00,
2013-08-27 12:46:00,77.0,46.0,27.07,NNW,337,4.0,7.0,33,0.00,,,0.00,Rainwise IP-100,2013-08-27 18:46:00,
2013-08-27 12:51:00,77.0,46.0,27.07,West,270,3.0,6.0,33,0.00,,,0.00,Rainwise IP-100,2013-08-27 18:51:00,
2013-08-27 12:56:00,78.0,47.0,27.07,WNW,292,1.0,6.0,33,0.00,,,0.00,Rainwise IP-100,2013-08-27 18:56:00,
2013-08-27 13:01:00,78.0,46.0,27.07,SSW,202,2.0,5.0,32,0.00,,,0.00,Rainwise IP-100,2013-08-27 19:01:00,
2013-08-27 13:06:00,79.0,46.0,27.06,SSE,157,2.0,5.0,31,0.00,,,0.00,Rainwise IP-100,2013-08-27 19:06:00,
2013-08-27 13:11:00,79.0,46.0,27.06,NE,45,0.0,5.0,31,0.00,,,0.00,Rainwise IP-100,2013-08-27 19:11:00,
2013-08-27 13:16:00,79.0,46.0,27.06,NE,45,0.0,4.0,31,0.00,,,0.00,Rainwise IP-100,2013-08-27 19:16:00,
2013-08-27 13:21:00,79.0,47.0,27.06,NE,45,3.0,6.0,32,0.00,,,0.00,Rainwise IP-100,2013-08-27 19:21:00,
2013-08-27 13:26:00,80.0,48.0,27.05,East,90,1.0,4.0,33,0.00,,,0.00,Rainwise IP-100,2013-08-27 19:26:00,
2013-08-27 13:31:00,80.0,47.0,27.05,NE,45,4.0,4.0,32,0.00,,,0.00,Rainwise IP-100,2013-08-27 19:31:00,
2013-08-27 13:36:00,81.0,47.0,27.04,North,360,1.0,5.0,31,0.00,,,0.00,Rainwise IP-100,2013-08-27 19:36:00,
2013-08-27 13:41:00,81.0,47.0,27.04,NNW,337,1.0,5.0,31,0.00,,,0.00,Rainwise IP-100,2013-08-27 19:41:00,
2013-08-27 13:46:00,81.0,47.0,27.05,NW,315,2.0,7.0,31,0.00,,,0.00,Rainwise IP-100,2013-08-27 19:46:00,
2013-08-27 13:51:00,81.0,47.0,27.05,WNW,292,0.0,6.0,31,0.00,,,0.00,Rainwise IP-100,2013-08-27 19:51:00,
2013-08-27 13:56:00,81.0,47.0,27.05,SW,225,2.0,6.0,31,0.00,,,0.00,Rainwise IP-100,2013-08-27 19:56:00,
2013-08-27 14:01:00,82.0,47.0,27.05,West,270,3.0,6.0,29,0.00,,,0.00,Rainwise IP-100,2013-08-27 20:01:00,
2013-08-27 14:06:00,82.0,47.0,27.04,NE,45,0.0,4.0,29,0.00,,,0.00,Rainwise IP-100,2013-08-27 20:06:00,
2013-08-27 14:11:00,82.0,46.0,27.04,West,270,3.0,6.0,28,0.00,,,0.00,Rainwise IP-100,2013-08-27 20:11:00,
2013-08-27 14:16:00,83.0,47.0,27.05,South,180,1.0,6.0,29,0.00,,,0.00,Rainwise IP-100,2013-08-27 20:16:00,
2013-08-27 14:21:00,84.0,47.0,27.05,NW,315,3.0,5.0,27,0.00,,,0.00,Rainwise IP-100,2013-08-27 20:21:00,
2013-08-27 14:26:00,84.0,47.0,27.05,West,270,0.0,6.0,27,0.00,,,0.00,Rainwise IP-100,2013-08-27 20:26:00,
2013-08-27 14:31:00,84.0,47.0,27.05,NNE,22,2.0,6.0,27,0.00,,,0.00,Rainwise IP-100,2013-08-27 20:31:00,
2013-08-27 14:36:00,85.0,47.0,27.05,NW,315,4.0,5.0,27,0.00,,,0.00,Rainwise IP-100,2013-08-27 20:36:00,
2013-08-27 14:41:00,85.0,46.0,27.05,West,270,4.0,6.0,26,0.00,,,0.00,Rainwise IP-100,2013-08-27 20:41:00,
2013-08-27 14:46:00,85.0,45.0,27.05,WSW,247,0.0,5.0,25,0.00,,,0.00,Rainwise IP-100,2013-08-27 20:46:00,
2013-08-27 14:51:00,86.0,47.0,27.05,West,270,0.0,3.0,26,0.00,,,0.00,Rainwise IP-100,2013-08-27 20:51:00,
2013-08-27 14:56:00,86.0,46.0,27.05,SE,135,2.0,6.0,25,0.00,,,0.00,Rainwise IP-100,2013-08-27 20:56:00,
2013-08-27 15:01:00,86.0,44.0,27.05,SSE,157,4.0,6.0,23,0.00,,,0.00,Rainwise IP-100,2013-08-27 21:01:00,
2013-08-27 15:06:00,87.0,45.0,27.05,South,180,0.0,6.0,23,0.00,,,0.00,Rainwise IP-100,2013-08-27 21:06:00,
2013-08-27 15:11:00,87.0,46.0,27.05,SW,225,1.0,6.0,24,0.00,,,0.00,Rainwise IP-100,2013-08-27 21:11:00,
2013-08-27 15:16:00,87.0,43.0,27.05,South,180,4.0,7.0,22,0.00,,,0.00,Rainwise IP-100,2013-08-27 21:16:00,
2013-08-27 15:21:00,87.0,43.0,27.05,South,180,0.0,6.0,22,0.00,,,0.00,Rainwise IP-100,2013-08-27 21:21:00,
2013-08-27 15:26:00,88.0,43.0,27.05,NE,45,2.0,3.0,21,0.00,,,0.00,Rainwise IP-100,2013-08-27 21:26:00,
2013-08-27 15:31:00,89.0,45.0,27.05,NE,45,2.0,3.0,22,0.00,,,0.00,Rainwise IP-100,2013-08-27 21:31:00,
2013-08-27 15:36:00,89.0,43.0,27.05,East,90,2.0,5.0,20,0.00,,,0.00,Rainwise IP-100,2013-08-27 21:36:00,
2013-08-27 15:41:00,89.0,44.0,27.05,NNW,337,3.0,5.0,21,0.00,,,0.00,Rainwise IP-100,2013-08-27 21:41:00,
2013-08-27 15:46:00,89.0,44.0,27.05,West,270,4.0,6.0,21,0.00,,,0.00,Rainwise IP-100,2013-08-27 21:46:00,
2013-08-27 15:51:00,88.0,42.0,27.05,West,270,7.0,7.0,20,0.00,,,0.00,Rainwise IP-100,2013-08-27 21:51:00,
2013-08-27 15:56:00,88.0,42.0,27.05,WNW,292,1.0,7.0,20,0.00,,,0.00,Rainwise IP-100,2013-08-27 21:56:00,
2013-08-27 16:01:00,89.0,43.0,27.05,North,360,6.0,8.0,20,0.00,,,0.00,Rainwise IP-100,2013-08-27 22:01:00,
2013-08-27 16:06:00,89.0,43.0,27.05,North,360,7.0,8.0,20,0.00,,,0.00,Rainwise IP-100,2013-08-27 22:06:00,
2013-08-27 16:11:00,88.0,42.0,27.05,WNW,292,3.0,9.0,20,0.00,,,0.00,Rainwise IP-100,2013-08-27 22:11:00,
2013-08-27 16:16:00,88.0,42.0,27.05,NW,315,5.0,8.0,20,0.00,,,0.00,Rainwise IP-100,2013-08-27 22:16:00,
2013-08-27 16:21:00,89.0,41.0,27.05,NNW,337,6.0,9.0,19,0.00,,,0.00,Rainwise IP-100,2013-08-27 22:21:00,
2013-08-27 16:26:00,89.0,40.0,27.03,NW,315,6.0,8.0,18,0.00,,,0.00,Rainwise IP-100,2013-08-27 22:26:00,
2013-08-27 16:31:00,89.0,40.0,27.03,NNW,337,5.0,7.0,18,0.00,,,0.00,Rainwise IP-100,2013-08-27 22:31:00,
2013-08-27 16:36:00,89.0,40.0,27.03,WNW,292,4.0,7.0,18,0.00,,,0.00,Rainwise IP-100,2013-08-27 22:36:00,
2013-08-27 16:41:00,90.0,41.0,27.03,NNW,337,7.0,7.0,18,0.00,,,0.00,Rainwise IP-100,2013-08-27 22:41:00,
2013-08-27 16:46:00,90.0,39.0,27.02,NW,315,0.0,7.0,17,0.00,,,0.00,Rainwise IP-100,2013-08-27 22:46:00,
2013-08-27 16:51:00,89.0,40.0,27.02,WNW,292,4.0,8.0,18,0.00,,,0.00,Rainwise IP-100,2013-08-27 22:51:00,
2013-08-27 16:56:00,89.0,41.0,27.03,SSW,202,0.0,6.0,19,0.00,,,0.00,Rainwise IP-100,2013-08-27 22:56:00,
2013-08-27 17:01:00,88.0,42.0,27.03,WNW,292,4.0,7.0,20,0.00,,,0.00,Rainwise IP-100,2013-08-27 23:01:00,
2013-08-27 17:06:00,87.0,41.0,27.01,WSW,247,2.0,9.0,20,0.00,,,0.00,Rainwise IP-100,2013-08-27 23:06:00,
2013-08-27 17:11:00,86.0,41.0,27.01,WSW,247,3.0,10.0,21,0.00,,,0.00,Rainwise IP-100,2013-08-27 23:11:00,
2013-08-27 17:16:00,86.0,41.0,27.01,West,270,6.0,6.0,21,0.00,,,0.00,Rainwise IP-100,2013-08-27 23:16:00,
2013-08-27 17:21:00,86.0,41.0,27.01,SW,225,0.0,6.0,21,0.00,,,0.00,Rainwise IP-100,2013-08-27 23:21:00,
2013-08-27 17:26:00,86.0,43.0,26.99,SW,225,0.0,3.0,22,0.00,,,0.00,Rainwise IP-100,2013-08-27 23:26:00,
2013-08-27 17:31:00,85.0,42.0,26.99,South,180,0.0,4.0,22,0.00,,,0.00,Rainwise IP-100,2013-08-27 23:31:00,
2013-08-27 17:36:00,85.0,42.0,26.97,SW,225,2.0,3.0,22,0.00,,,0.00,Rainwise IP-100,2013-08-27 23:36:00,
2013-08-27 17:41:00,85.0,42.0,26.97,South,180,4.0,7.0,22,0.00,,,0.00,Rainwise IP-100,2013-08-27 23:41:00,
2013-08-27 17:46:00,84.0,41.0,26.98,SW,225,6.0,9.0,22,0.00,,,0.00,Rainwise IP-100,2013-08-27 23:46:00,
2013-08-27 17:51:00,84.0,42.0,26.98,South,180,9.0,10.0,23,0.00,,,0.00,Rainwise IP-100,2013-08-27 23:51:00,
2013-08-27 17:56:00,84.0,41.0,26.99,SSE,157,10.0,10.0,22,0.00,,,0.00,Rainwise IP-100,2013-08-27 23:56:00,
2013-08-27 18:01:00,84.0,41.0,26.99,SSE,157,8.0,19.0,22,0.00,,,0.00,Rainwise IP-100,2013-08-28 00:01:00,
2013-08-27 18:06:00,84.0,40.0,26.97,SE,135,6.0,14.0,21,0.00,,,0.00,Rainwise IP-100,2013-08-28 00:06:00,
2013-08-27 18:11:00,85.0,40.0,26.97,SE,135,4.0,10.0,21,0.00,,,0.00,Rainwise IP-100,2013-08-28 00:11:00,
2013-08-27 18:16:00,85.0,39.0,26.97,SE,135,5.0,9.0,20,0.00,,,0.00,Rainwise IP-100,2013-08-28 00:16:00,
2013-08-27 18:21:00,86.0,40.0,26.97,East,90,3.0,7.0,20,0.00,,,0.00,Rainwise IP-100,2013-08-28 00:21:00,
2013-08-27 18:26:00,86.0,40.0,27.00,SSE,157,5.0,6.0,20,0.00,,,0.00,Rainwise IP-100,2013-08-28 00:26:00,
2013-08-27 18:31:00,85.0,39.0,27.00,SE,135,3.0,9.0,20,0.00,,,0.00,Rainwise IP-100,2013-08-28 00:31:00,
2013-08-27 18:36:00,85.0,39.0,27.00,ESE,112,3.0,9.0,20,0.00,,,0.00,Rainwise IP-100,2013-08-28 00:36:00,
2013-08-27 18:41:00,85.0,39.0,27.00,SE,135,4.0,10.0,20,0.00,,,0.00,Rainwise IP-100,2013-08-28 00:41:00,
2013-08-27 18:46:00,85.0,39.0,26.99,SE,135,5.0,6.0,20,0.00,,,0.00,Rainwise IP-100,2013-08-28 00:46:00,
2013-08-27 18:51:00,85.0,40.0,26.99,ESE,112,2.0,7.0,21,0.00,,,0.00,Rainwise IP-100,2013-08-28 00:51:00,
2013-08-27 18:56:00,85.0,40.0,26.98,SSE,157,5.0,6.0,21,0.00,,,0.00,Rainwise IP-100,2013-08-28 00:56:00,
2013-08-27 19:01:00,85.0,40.0,26.98,SE,135,2.0,8.0,21,0.00,,,0.00,Rainwise IP-100,2013-08-28 01:01:00,
2013-08-27 19:06:00,85.0,40.0,26.99,South,180,0.0,3.0,21,0.00,,,0.00,Rainwise IP-100,2013-08-28 01:06:00,
2013-08-27 19:11:00,85.0,40.0,26.99,East,90,2.0,4.0,21,0.00,,,0.00,Rainwise IP-100,2013-08-28 01:11:00,
2013-08-27 19:16:00,84.0,40.0,26.97,East,90,3.0,6.0,21,0.00,,,0.00,Rainwise IP-100,2013-08-28 01:16:00,
2013-08-27 19:21:00,84.0,41.0,26.97,East,90,0.0,5.0,22,0.00,,,0.00,Rainwise IP-100,2013-08-28 01:21:00,
2013-08-27 19:26:00,84.0,41.0,26.97,ENE,67,1.0,5.0,22,0.00,,,0.00,Rainwise IP-100,2013-08-28 01:26:00,
2013-08-27 19:31:00,84.0,41.0,26.97,East,90,1.0,6.0,22,0.00,,,0.00,Rainwise IP-100,2013-08-28 01:31:00,
2013-08-27 19:36:00,83.0,40.0,26.97,ENE,67,2.0,6.0,22,0.00,,,0.00,Rainwise IP-100,2013-08-28 01:36:00,
2013-08-27 19:41:00,83.0,40.0,26.97,NE,45,5.0,7.0,22,0.00,,,0.00,Rainwise IP-100,2013-08-28 01:41:00,
2013-08-27 19:46:00,82.0,40.0,26.96,East,90,1.0,7.0,23,0.00,,,0.00,Rainwise IP-100,2013-08-28 01:46:00,
2013-08-27 19:51:00,82.0,40.0,26.96,East,90,1.0,4.0,23,0.00,,,0.00,Rainwise IP-100,2013-08-28 01:51:00,
2013-08-27 19:56:00,81.0,41.0,26.95,East,90,2.0,3.0,24,0.00,,,0.00,Rainwise IP-100,2013-08-28 01:56:00,
2013-08-27 20:01:00,81.0,41.0,26.95,NE,45,2.0,5.0,24,0.00,,,0.00,Rainwise IP-100,2013-08-28 02:01:00,
2013-08-27 20:06:00,81.0,41.0,26.94,ENE,67,6.0,9.0,24,0.00,,,0.00,Rainwise IP-100,2013-08-28 02:06:00,
2013-08-27 20:11:00,81.0,42.0,26.94,ESE,112,7.0,9.0,25,0.00,,,0.00,Rainwise IP-100,2013-08-28 02:11:00,
2013-08-27 20:16:00,81.0,42.0,26.94,NE,45,7.0,12.0,25,0.00,,,0.00,Rainwise IP-100,2013-08-28 02:16:00,
2013-08-27 20:21:00,80.0,42.0,26.94,ENE,67,6.0,9.0,26,0.00,,,0.00,Rainwise IP-100,2013-08-28 02:21:00,
2013-08-27 20:26:00,80.0,42.0,26.94,SSE,157,4.0,11.0,26,0.00,,,0.00,Rainwise IP-100,2013-08-28 02:26:00,
2013-08-27 20:31:00,80.0,43.0,26.94,SSE,157,3.0,7.0,27,0.00,,,0.00,Rainwise IP-100,2013-08-28 02:31:00,
2013-08-27 20:36:00,79.0,42.0,26.94,East,90,6.0,9.0,27,0.00,,,0.00,Rainwise IP-100,2013-08-28 02:36:00,
2013-08-27 20:41:00,79.0,42.0,26.94,ESE,112,1.0,9.0,27,0.00,,,0.00,Rainwise IP-100,2013-08-28 02:41:00,
2013-08-27 20:46:00,79.0,42.0,26.94,South,180,0.0,9.0,27,0.00,,,0.00,Rainwise IP-100,2013-08-28 02:46:00,
2013-08-27 20:51:00,79.0,42.0,26.94,SSE,157,0.0,6.0,27,0.00,,,0.00,Rainwise IP-100,2013-08-28 02:51:00,
2013-08-27 20:56:00,79.0,42.0,26.93,SE,135,1.0,10.0,27,0.00,,,0.00,Rainwise IP-100,2013-08-28 02:56:00,
2013-08-27 21:01:00,79.0,42.0,26.93,NE,45,3.0,9.0,27,0.00,,,0.00,Rainwise IP-100,2013-08-28 03:01:00,
2013-08-27 21:06:00,79.0,42.0,26.94,ENE,67,1.0,11.0,27,0.00,,,0.00,Rainwise IP-100,2013-08-28 03:06:00,
2013-08-27 21:11:00,78.0,41.0,26.94,NE,45,5.0,9.0,27,0.00,,,0.00,Rainwise IP-100,2013-08-28 03:11:00,
2013-08-27 21:16:00,78.0,41.0,26.94,ESE,112,1.0,9.0,27,0.00,,,0.00,Rainwise IP-100,2013-08-28 03:16:00,
2013-08-27 21:21:00,78.0,42.0,26.94,SSE,157,4.0,7.0,28,0.00,,,0.00,Rainwise IP-100,2013-08-28 03:21:00,
2013-08-27 21:26:00,78.0,42.0,26.95,SSE,157,1.0,7.0,28,0.00,,,0.00,Rainwise IP-100,2013-08-28 03:26:00,
2013-08-27 21:31:00,78.0,43.0,26.95,SSE,157,1.0,6.0,29,0.00,,,0.00,Rainwise IP-100,2013-08-28 03:31:00,
2013-08-27 21:36:00,77.0,42.0,26.95,ENE,67,4.0,6.0,29,0.00,,,0.00,Rainwise IP-100,2013-08-28 03:36:00,
2013-08-27 21:41:00,78.0,43.0,26.95,SSW,202,0.0,6.0,29,0.00,,,0.00,Rainwise IP-100,2013-08-28 03:41:00,
2013-08-27 21:46:00,78.0,43.0,26.97,SSE,157,0.0,5.0,29,0.00,,,0.00,Rainwise IP-100,2013-08-28 03:46:00,
2013-08-27 21:51:00,77.0,43.0,26.97,SW,225,0.0,9.0,30,0.00,,,0.00,Rainwise IP-100,2013-08-28 03:51:00,
2013-08-27 21:56:00,76.0,42.0,26.98,SSE,157,3.0,8.0,30,0.00,,,0.00,Rainwise IP-100,2013-08-28 03:56:00,
2013-08-27 22:01:00,77.0,43.0,26.98,SSE,157,7.0,13.0,30,0.00,,,0.00,Rainwise IP-100,2013-08-28 04:01:00,
2013-08-27 22:06:00,78.0,44.0,26.95,SE,135,5.0,25.0,30,0.00,,,0.00,Rainwise IP-100,2013-08-28 04:06:00,
2013-08-27 22:11:00,79.0,43.0,26.95,SSE,157,8.0,15.0,28,0.00,,,0.00,Rainwise IP-100,2013-08-28 04:11:00,
2013-08-27 22:16:00,79.0,43.0,26.96,South,180,8.0,12.0,28,0.00,,,0.00,Rainwise IP-100,2013-08-28 04:16:00,
2013-08-27 22:21:00,79.0,44.0,26.96,NE,45,0.0,14.0,29,0.00,,,0.00,Rainwise IP-100,2013-08-28 04:21:00,
2013-08-27 22:26:00,78.0,43.0,26.95,NNW,337,4.0,6.0,29,0.00,,,0.00,Rainwise IP-100,2013-08-28 04:26:00,
2013-08-27 22:31:00,77.0,45.0,26.95,NNW,337,4.0,7.0,32,0.00,,,0.00,Rainwise IP-100,2013-08-28 04:31:00,
2013-08-27 22:36:00,77.0,45.0,26.96,North,360,0.0,6.0,32,0.00,,,0.00,Rainwise IP-100,2013-08-28 04:36:00,
2013-08-27 22:41:00,76.0,45.0,26.96,SE,135,2.0,2.0,33,0.00,,,0.00,Rainwise IP-100,2013-08-28 04:41:00,
2013-08-27 22:46:00,76.0,43.0,26.97,East,90,0.0,6.0,31,0.00,,,0.00,Rainwise IP-100,2013-08-28 04:46:00,
2013-08-27 22:51:00,76.0,44.0,26.97,South,180,5.0,5.0,32,0.00,,,0.00,Rainwise IP-100,2013-08-28 04:51:00,
2013-08-27 22:56:00,75.0,43.0,26.96,ENE,67,2.0,6.0,32,0.00,,,0.00,Rainwise IP-100,2013-08-28 04:56:00,
2013-08-27 23:01:00,76.0,44.0,26.96,ESE,112,1.0,7.0,32,0.00,,,0.00,Rainwise IP-100,2013-08-28 05:01:00,
2013-08-27 23:06:00,75.0,44.0,26.96,SE,135,2.0,4.0,33,0.00,,,0.00,Rainwise IP-100,2013-08-28 05:06:00,
2013-08-27 23:11:00,75.0,44.0,26.96,East,90,2.0,5.0,33,0.00,,,0.00,Rainwise IP-100,2013-08-28 05:11:00,
2013-08-27 23:16:00,74.0,44.0,26.95,SE,135,0.0,4.0,34,0.00,,,0.00,Rainwise IP-100,2013-08-28 05:16:00,
2013-08-27 23:21:00,74.0,46.0,26.95,ENE,67,6.0,6.0,36,0.00,,,0.00,Rainwise IP-100,2013-08-28 05:21:00,
2013-08-27 23:26:00,74.0,46.0,26.95,ESE,112,3.0,6.0,36,0.00,,,0.00,Rainwise IP-100,2013-08-28 05:26:00,
2013-08-27 23:31:00,73.0,45.0,26.95,SE,135,1.0,6.0,36,0.00,,,0.00,Rainwise IP-100,2013-08-28 05:31:00,
2013-08-27 23:36:00,73.0,45.0,26.98,North,360,0.0,4.0,36,0.00,,,0.00,Rainwise IP-100,2013-08-28 05:36:00,
2013-08-27 23:41:00,72.0,44.0,26.98,North,360,0.0,5.0,37,0.00,,,0.00,Rainwise IP-100,2013-08-28 05:41:00,
2013-08-27 23:46:00,72.0,46.0,26.97,NNW,337,0.0,0.0,39,0.00,,,0.00,Rainwise IP-100,2013-08-28 05:46:00,
2013-08-27 23:51:00,71.0,45.0,26.97,SW,225,0.0,4.0,40,0.00,,,0.00,Rainwise IP-100,2013-08-28 05:51:00,
2013-08-27 23:56:00,71.0,46.0,26.98,South,180,5.0,5.0,41,0.00,,,0.00,Rainwise IP-100,2013-08-28 05:56:00,